Time,TemperatureF,DewpointF,PressureIn,WindDirection,WindDirectionDegrees,WindSpeedMPH,WindSpeedGustMPH,Humidity,HourlyPrecipIn,Conditions,Clouds,dailyrainin,SoftwareType,DateUTC
2013-08-24 00:02:00,54.4,48.7,29.93,WSW,239,4.0,6.0,81,0.00,,,0.00,WeatherCatV1.21B27,2013-08-23 23:02:00,
2013-08-24 00:07:00,54.6,49.2,29.93,WSW,257,5.0,6.0,82,0.00,,,0.00,WeatherCatV1.21B27,2013-08-23 23:07:00,
2013-08-24 00:12:00,54.9,49.5,29.93,WSW,257,3.0,6.0,82,0.00,,,0.00,WeatherCatV1.21B27,2013-08-23 23:12:00,
2013-08-24 00:17:00,55.0,49.9,29.93,WNW,297,1.0,5.0,83,0.00,,,0.00,WeatherCatV1.21B27,2013-08-23 23:17:00,
2013-08-24 00:22:00,54.9,49.8,29.93,WNW,283,1.0,2.0,83,0.00,,,0.00,WeatherCatV1.21B27,2013-08-23 23:22:00,
2013-08-24 00:27:00,54.9,50.2,29.93,West,270,2.0,5.0,84,0.00,,,0.00,WeatherCatV1.21B27,2013-08-23 23:27:00,
2013-08-24 00:32:00,54.9,49.8,29.93,WSW,253,3.0,5.0,83,0.00,,,0.00,WeatherCatV1.21B27,2013-08-23 23:32:00,
2013-08-24 00:38:00,55.1,50.3,29.94,WSW,246,5.0,7.0,84,0.00,,,0.00,WeatherCatV1.21B27,2013-08-23 23:38:00,
2013-08-24 00:43:00,55.3,50.5,29.94,WNW,298,4.0,5.0,84,0.00,,,0.00,WeatherCatV1.21B27,2013-08-23 23:43:00,
2013-08-24 00:48:00,55.4,51.0,29.94,West,270,3.0,4.0,85,0.00,,,0.00,WeatherCatV1.21B27,2013-08-23 23:48:00,
2013-08-24 00:53:00,55.4,51.0,29.94,West,260,3.0,5.0,85,0.00,,,0.00,WeatherCatV1.21B27,2013-08-23 23:53:00,
2013-08-24 00:58:00,55.4,51.3,29.93,West,276,3.0,3.0,86,0.00,,,0.00,WeatherCatV1.21B27,2013-08-23 23:58:00,
2013-08-24 01:03:00,55.3,51.2,29.94,NW,318,2.0,3.0,86,0.00,,,0.00,WeatherCatV1.21B27,2013-08-24 00:03:00,
2013-08-24 01:08:00,55.2,51.1,29.93,NNE,30,2.0,4.0,86,0.00,,,0.00,WeatherCatV1.21B27,2013-08-24 00:08:00,
2013-08-24 01:13:00,55.1,51.3,29.94,West,281,2.0,6.0,87,0.00,,,0.00,WeatherCatV1.21B27,2013-08-24 00:13:00,
2013-08-24 01:18:00,55.1,51.3,29.94,NW,309,2.0,5.0,87,0.00,,,0.00,WeatherCatV1.21B27,2013-08-24 00:18:00,
2013-08-24 01:23:00,55.0,51.2,29.94,West,276,2.0,2.0,87,0.00,,,0.00,WeatherCatV1.21B27,2013-08-24 00:23:00,
2013-08-24 01:28:00,55.0,51.5,29.94,West,260,2.0,3.0,88,0.00,,,0.00,WeatherCatV1.21B27,2013-08-24 00:28:00,
2013-08-24 01:33:00,55.1,51.6,29.93,WNW,288,1.0,3.0,88,0.00,,,0.00,WeatherCatV1.21B27,2013-08-24 00:33:00,
2013-08-24 01:38:00,55.0,51.5,29.93,WNW,283,1.0,3.0,88,0.00,,,0.00,WeatherCatV1.21B27,2013-08-24 00:38:00,
2013-08-24 01:43:00,54.9,51.4,29.93,West,276,1.0,2.0,88,0.00,,,0.00,WeatherCatV1.21B27,2013-08-24 00:43:00,
2013-08-24 01:48:00,54.9,51.4,29.93,WSW,256,2.0,3.0,88,0.00,,,0.00,WeatherCatV1.21B27,2013-08-24 00:48:00,
2013-08-24 01:53:00,55.0,51.5,29.93,West,260,4.0,4.0,88,0.00,,,0.00,WeatherCatV1.21B27,2013-08-24 00:53:00,
2013-08-24 01:58:00,55.1,51.6,29.93,WNW,290,4.0,4.0,88,0.00,,,0.00,WeatherCatV1.21B27,2013-08-24 00:58:00,
2013-08-24 02:03:00,55.2,51.7,29.93,West,266,3.0,4.0,88,0.00,,,0.00,WeatherCatV1.21B27,2013-08-24 01:03:00,
2013-08-24 02:08:00,55.2,51.7,29.92,WNW,288,2.0,3.0,88,0.00,,,0.00,WeatherCatV1.21B27,2013-08-24 01:08:00,
2013-08-24 02:13:00,55.1,51.9,29.92,WNW,297,2.0,3.0,89,0.00,,,0.00,WeatherCatV1.21B27,2013-08-24 01:13:00,
2013-08-24 02:18:00,54.9,51.7,29.93,WNW,298,3.0,3.0,89,0.00,,,0.00,WeatherCatV1.21B27,2013-08-24 01:18:00,
2013-08-24 02:23:00,55.0,51.8,29.92,WNW,283,5.0,5.0,89,0.00,,,0.00,WeatherCatV1.21B27,2013-08-24 01:23:00,
2013-08-24 02:28:00,55.0,51.8,29.93,WNW,283,1.0,7.0,89,0.00,,,0.00,WeatherCatV1.21B27,2013-08-24 01:28:00,
2013-08-24 02:33:00,55.1,51.6,29.93,West,277,6.0,8.0,88,0.00,,,0.00,WeatherCatV1.21B27,2013-08-24 01:33:00,
2013-08-24 02:38:00,55.2,51.1,29.93,WNW,283,2.0,4.0,86,0.00,,,0.00,WeatherCatV1.21B27,2013-08-24 01:38:00,
2013-08-24 02:43:00,55.2,51.1,29.93,West,271,2.0,3.0,86,0.00,,,0.00,WeatherCatV1.21B27,2013-08-24 01:43:00,
2013-08-24 02:48:00,55.2,50.8,29.93,WNW,291,1.0,3.0,85,0.00,,,0.00,WeatherCatV1.21B27,2013-08-24 01:48:00,
2013-08-24 02:53:00,55.1,50.7,29.94,WNW,297,0.0,1.0,85,0.00,,,0.00,WeatherCatV1.21B27,2013-08-24 01:53:00,
2013-08-24 02:58:00,55.1,51.0,29.94,WNW,283,3.0,5.0,86,0.00,,,0.00,WeatherCatV1.21B27,2013-08-24 01:58:00,
2013-08-24 03:03:00,55.1,51.0,29.94,WNW,288,2.0,4.0,86,0.00,,,0.00,WeatherCatV1.21B27,2013-08-24 02:03:00,
2013-08-24 03:08:00,55.1,51.3,29.94,West,276,3.0,5.0,87,0.00,,,0.00,WeatherCatV1.21B27,2013-08-24 02:08:00,
2013-08-24 03:13:00,55.1,51.3,29.94,WNW,293,4.0,5.0,87,0.00,,,0.00,WeatherCatV1.21B27,2013-08-24 02:13:00,
2013-08-24 03:18:00,55.2,51.4,29.94,WNW,293,1.0,4.0,87,0.00,,,0.00,WeatherCatV1.21B27,2013-08-24 02:18:00,
2013-08-24 03:23:00,55.2,51.4,29.94,West,274,3.0,5.0,87,0.00,,,0.00,WeatherCatV1.21B27,2013-08-24 02:23:00,
2013-08-24 03:28:00,55.1,51.6,29.94,WSW,249,2.0,3.0,88,0.00,,,0.00,WeatherCatV1.21B27,2013-08-24 02:28:00,
2013-08-24 03:33:00,55.1,51.3,29.94,WNW,287,2.0,3.0,87,0.00,,,0.00,WeatherCatV1.21B27,2013-08-24 02:33:00,
2013-08-24 03:38:00,55.1,51.3,29.95,WNW,290,2.0,4.0,87,0.00,,,0.00,WeatherCatV1.21B27,2013-08-24 02:38:00,
2013-08-24 03:43:00,55.1,51.3,29.95,West,281,4.0,7.0,87,0.00,,,0.00,WeatherCatV1.21B27,2013-08-24 02:43:00,
2013-08-24 03:48:00,55.2,51.4,29.94,WNW,293,1.0,4.0,87,0.00,,,0.00,WeatherCatV1.21B27,2013-08-24 02:48:00,
2013-08-24 03:53:00,55.2,51.4,29.94,West,274,3.0,3.0,87,0.00,,,0.00,WeatherCatV1.21B27,2013-08-24 02:53:00,
2013-08-24 03:58:00,55.3,51.5,29.94,West,271,2.0,3.0,87,0.00,,,0.00,WeatherCatV1.21B27,2013-08-24 02:58:00,
2013-08-24 04:03:00,55.3,51.5,29.94,WNW,288,4.0,5.0,87,0.00,,,0.00,WeatherCatV1.21B27,2013-08-24 03:03:00,
2013-08-24 04:09:00,55.2,51.4,29.94,WNW,282,2.0,6.0,87,0.00,,,0.00,WeatherCatV1.21B27,2013-08-24 03:09:00,
2013-08-24 04:14:00,55.2,51.4,29.93,WSW,256,1.0,2.0,87,0.00,,,0.00,WeatherCatV1.21B27,2013-08-24 03:14:00,
2013-08-24 04:19:00,55.2,51.4,29.93,West,274,2.0,3.0,87,0.00,,,0.00,WeatherCatV1.21B27,2013-08-24 03:19:00,
2013-08-24 04:24:00,55.2,51.4,29.93,West,261,2.0,3.0,87,0.00,,,0.00,WeatherCatV1.21B27,2013-08-24 03:24:00,
2013-08-24 04:29:00,55.1,51.3,29.93,West,260,3.0,4.0,87,0.00,,,0.00,WeatherCatV1.21B27,2013-08-24 03:29:00,
2013-08-24 04:34:00,55.1,51.3,29.93,WNW,283,0.0,3.0,87,0.00,,,0.00,WeatherCatV1.21B27,2013-08-24 03:34:00,
2013-08-24 04:39:00,55.0,51.2,29.93,WNW,284,2.0,3.0,87,0.00,,,0.00,WeatherCatV1.21B27,2013-08-24 03:39:00,
2013-08-24 04:44:00,54.8,51.0,29.94,WNW,284,1.0,2.0,87,0.00,,,0.00,WeatherCatV1.21B27,2013-08-24 03:44:00,
2013-08-24 04:49:00,54.8,51.0,29.94,WNW,291,2.0,3.0,87,0.00,,,0.00,WeatherCatV1.21B27,2013-08-24 03:49:00,
2013-08-24 04:54:00,54.7,51.2,29.94,WNW,297,0.0,2.0,88,0.00,,,0.00,WeatherCatV1.21B27,2013-08-24 03:54:00,
2013-08-24 04:59:00,54.5,51.0,29.94,West,281,1.0,2.0,88,0.00,,,0.00,WeatherCatV1.21B27,2013-08-24 03:59:00,
2013-08-24 05:01:00,54.5,51.0,29.94,WNW,284,2.0,2.0,88,0.00,,,0.00,WeatherCatV1.21B27,2013-08-24 04:01:00,
2013-08-24 05:02:00,54.5,51.0,29.94,WNW,284,0.0,2.0,88,0.00,,,0.00,WeatherCatV1.21B27,2013-08-24 04:02:00,
2013-08-24 05:07:00,54.3,50.8,29.94,WNW,283,0.0,1.0,88,0.00,,,0.00,WeatherCatV1.21B27,2013-08-24 04:07:00,
2013-08-24 05:12:00,54.2,50.7,29.93,WNW,284,1.0,1.0,88,0.00,,,0.00,WeatherCatV1.21B27,2013-08-24 04:12:00,
2013-08-24 05:17:00,54.0,50.8,29.93,WNW,284,0.0,1.0,89,0.00,,,0.00,WeatherCatV1.21B27,2013-08-24 04:17:00,
2013-08-24 05:22:00,53.7,50.5,29.94,WNW,290,1.0,2.0,89,0.00,,,0.00,WeatherCatV1.21B27,2013-08-24 04:22:00,
2013-08-24 05:27:00,53.6,50.4,29.94,West,280,3.0,3.0,89,0.00,,,0.00,WeatherCatV1.21B27,2013-08-24 04:27:00,
2013-08-24 05:32:00,53.7,50.8,29.93,West,274,0.0,1.0,90,0.00,,,0.00,WeatherCatV1.21B27,2013-08-24 04:32:00,
2013-08-24 05:37:00,53.7,50.5,29.93,West,277,1.0,1.0,89,0.00,,,0.00,WeatherCatV1.21B27,2013-08-24 04:37:00,
2013-08-24 05:42:00,53.7,50.5,29.93,West,277,0.0,1.0,89,0.00,,,0.00,WeatherCatV1.21B27,2013-08-24 04:42:00,
2013-08-24 05:47:00,53.5,50.3,29.93,West,277,1.0,1.0,89,0.00,,,0.00,WeatherCatV1.21B27,2013-08-24 04:47:00,
2013-08-24 05:52:00,53.3,50.4,29.94,WNW,287,1.0,3.0,90,0.00,,,0.00,WeatherCatV1.21B27,2013-08-24 04:52:00,
2013-08-24 05:57:00,53.6,50.7,29.93,West,281,2.0,3.0,90,0.00,,,0.00,WeatherCatV1.21B27,2013-08-24 04:57:00,
2013-08-24 06:02:00,53.8,50.6,29.93,WNW,283,0.0,1.0,89,0.00,,,0.00,WeatherCatV1.21B27,2013-08-24 05:02:00,
2013-08-24 06:07:00,53.8,50.6,29.93,WNW,289,1.0,1.0,89,0.00,,,0.00,WeatherCatV1.21B27,2013-08-24 05:07:00,
2013-08-24 06:12:00,53.7,50.5,29.93,WNW,291,1.0,1.0,89,0.00,,,0.00,WeatherCatV1.21B27,2013-08-24 05:12:00,
2013-08-24 06:17:00,53.4,50.2,29.93,WNW,290,0.0,1.0,89,0.00,,,0.00,WeatherCatV1.21B27,2013-08-24 05:17:00,
2013-08-24 06:22:00,53.1,50.2,29.93,WNW,291,1.0,1.0,90,0.00,,,0.00,WeatherCatV1.21B27,2013-08-24 05:22:00,
2013-08-24 06:27:00,52.9,50.0,29.93,WNW,291,0.0,0.0,90,0.00,,,0.00,WeatherCatV1.21B27,2013-08-24 05:27:00,
2013-08-24 06:32:00,52.8,50.2,29.93,WNW,291,0.0,0.0,91,0.00,,,0.00,WeatherCatV1.21B27,2013-08-24 05:32:00,
2013-08-24 06:37:00,52.7,50.2,29.93,WNW,291,0.0,0.0,91,0.00,,,0.00,WeatherCatV1.21B27,2013-08-24 05:37:00,
2013-08-24 06:42:00,52.9,50.6,29.93,WNW,291,0.0,0.0,92,0.00,,,0.00,WeatherCatV1.21B27,2013-08-24 05:42:00,
2013-08-24 06:47:00,53.0,50.7,29.93,WNW,291,0.0,0.0,92,0.00,,,0.00,WeatherCatV1.21B27,2013-08-24 05:47:00,
2013-08-24 06:52:00,53.2,50.9,29.93,WNW,291,0.0,0.0,92,0.00,,,0.00,WeatherCatV1.21B27,2013-08-24 05:52:00,
2013-08-24 06:57:00,53.3,51.0,29.93,WNW,291,0.0,0.0,92,0.00,,,0.00,WeatherCatV1.21B27,2013-08-24 05:57:00,
2013-08-24 07:02:00,53.5,51.2,29.93,WNW,291,1.0,1.0,92,0.00,,,0.00,WeatherCatV1.21B27,2013-08-24 06:02:00,
2013-08-24 07:07:00,53.7,51.4,29.93,WNW,291,0.0,0.0,92,0.00,,,0.00,WeatherCatV1.21B27,2013-08-24 06:07:00,
2013-08-24 07:12:00,53.8,51.5,29.94,WNW,291,0.0,0.0,92,0.00,,,0.00,WeatherCatV1.21B27,2013-08-24 06:12:00,
2013-08-24 07:17:00,54.1,51.8,29.94,WNW,291,0.0,0.0,92,0.00,,,0.00,WeatherCatV1.21B27,2013-08-24 06:17:00,
2013-08-24 07:22:00,54.3,51.7,29.93,WNW,291,1.0,1.0,91,0.00,,,0.00,WeatherCatV1.21B27,2013-08-24 06:22:00,
2013-08-24 07:27:00,54.5,51.6,29.93,WNW,291,0.0,1.0,90,0.00,,,0.00,WeatherCatV1.21B27,2013-08-24 06:27:00,
2013-08-24 07:33:00,54.7,51.8,29.94,WNW,291,1.0,1.0,90,0.00,,,0.00,WeatherCatV1.21B27,2013-08-24 06:33:00,
2013-08-24 07:38:00,54.8,51.6,29.93,WNW,291,0.0,0.0,89,0.00,,,0.00,WeatherCatV1.21B27,2013-08-24 06:38:00,
2013-08-24 07:42:00,54.9,51.7,29.93,WNW,291,0.0,1.0,89,0.00,,,0.00,WeatherCatV1.21B27,2013-08-24 06:42:00,
2013-08-24 07:48:00,54.9,51.4,29.94,WNW,291,0.0,0.0,88,0.00,,,0.00,WeatherCatV1.21B27,2013-08-24 06:48:00,
2013-08-24 07:53:00,55.2,52.0,29.93,WNW,291,0.0,0.0,89,0.00,,,0.00,WeatherCatV1.21B27,2013-08-24 06:53:00,
2013-08-24 07:58:00,55.4,51.9,29.94,WNW,291,0.0,0.0,88,0.00,,,0.00,WeatherCatV1.21B27,2013-08-24 06:58:00,
2013-08-24 08:03:00,55.7,52.2,29.93,WNW,291,0.0,0.0,88,0.00,,,0.00,WeatherCatV1.21B27,2013-08-24 07:03:00,
2013-08-24 08:08:00,55.9,52.1,29.93,WNW,290,0.0,0.0,87,0.00,,,0.00,WeatherCatV1.21B27,2013-08-24 07:08:00,
2013-08-24 08:13:00,56.4,52.6,29.93,WNW,290,0.0,1.0,87,0.00,,,0.00,WeatherCatV1.21B27,2013-08-24 07:13:00,
2013-08-24 08:18:00,56.6,52.1,29.94,WNW,290,0.0,0.0,85,0.00,,,0.00,WeatherCatV1.21B27,2013-08-24 07:18:00,
2013-08-24 08:23:00,56.7,51.9,29.94,WNW,288,0.0,1.0,84,0.00,,,0.00,WeatherCatV1.21B27,2013-08-24 07:23:00,
2013-08-24 08:28:00,56.8,51.7,29.94,WNW,289,1.0,1.0,83,0.00,,,0.00,WeatherCatV1.21B27,2013-08-24 07:28:00,
2013-08-24 08:33:00,56.9,51.8,29.94,WNW,289,0.0,0.0,83,0.00,,,0.00,WeatherCatV1.21B27,2013-08-24 07:33:00,
2013-08-24 08:38:00,57.1,52.3,29.94,WNW,284,0.0,2.0,84,0.00,,,0.00,WeatherCatV1.21B27,2013-08-24 07:38:00,
2013-08-24 08:43:00,57.2,52.4,29.94,West,271,1.0,2.0,84,0.00,,,0.00,WeatherCatV1.21B27,2013-08-24 07:43:00,
2013-08-24 08:48:00,57.6,52.5,29.93,West,267,0.0,2.0,83,0.00,,,0.00,WeatherCatV1.21B27,2013-08-24 07:48:00,
2013-08-24 08:53:00,57.9,52.4,29.94,WSW,247,2.0,3.0,82,0.00,,,0.00,WeatherCatV1.21B27,2013-08-24 07:53:00,
2013-08-24 08:58:00,58.2,52.7,29.93,SW,219,2.0,2.0,82,0.00,,,0.00,WeatherCatV1.21B27,2013-08-24 07:58:00,
2013-08-24 09:03:00,58.4,52.2,29.93,West,259,2.0,3.0,80,0.00,,,0.00,WeatherCatV1.21B27,2013-08-24 08:03:00,
2013-08-24 09:08:00,58.5,52.0,29.93,SSW,212,2.0,4.0,79,0.00,,,0.00,WeatherCatV1.21B27,2013-08-24 08:08:00,
2013-08-24 09:13:00,58.5,52.0,29.93,SW,217,2.0,3.0,79,0.00,,,0.00,WeatherCatV1.21B27,2013-08-24 08:13:00,
2013-08-24 09:18:00,58.5,52.0,29.92,SW,228,2.0,3.0,79,0.00,,,0.00,WeatherCatV1.21B27,2013-08-24 08:18:00,
2013-08-24 09:23:00,58.7,52.5,29.92,WSW,257,1.0,2.0,80,0.00,,,0.00,WeatherCatV1.21B27,2013-08-24 08:23:00,
2013-08-24 09:28:00,58.9,52.4,29.92,SW,215,1.0,2.0,79,0.00,,,0.00,WeatherCatV1.21B27,2013-08-24 08:28:00,
2013-08-24 09:50:00,60.0,53.5,29.92,SSW,207,2.0,3.0,79,0.00,,,0.00,WeatherCatV1.21B27,2013-08-24 08:50:00,
2013-08-24 09:55:00,60.1,53.9,29.91,South,191,4.0,4.0,80,0.00,,,0.00,WeatherCatV1.21B27,2013-08-24 08:55:00,
2013-08-24 10:00:00,60.3,54.1,29.91,South,186,2.0,6.0,80,0.00,,,0.00,WeatherCatV1.21B27,2013-08-24 09:00:00,
2013-08-24 10:05:00,60.4,54.5,29.91,SW,214,3.0,4.0,81,0.00,,,0.00,WeatherCatV1.21B27,2013-08-24 09:05:00,
2013-08-24 10:10:00,60.5,54.3,29.91,SW,214,4.0,9.0,80,0.00,,,0.00,WeatherCatV1.21B27,2013-08-24 09:10:00,
2013-08-24 10:15:00,60.6,54.7,29.91,SSW,204,6.0,6.0,81,0.00,,,0.00,WeatherCatV1.21B27,2013-08-24 09:15:00,
2013-08-24 10:20:00,60.4,54.5,29.91,South,190,8.0,10.0,81,0.00,,,0.00,WeatherCatV1.21B27,2013-08-24 09:20:00,
2013-08-24 10:25:00,60.4,54.9,29.91,SW,236,6.0,9.0,82,0.00,,,0.00,WeatherCatV1.21B27,2013-08-24 09:25:00,
2013-08-24 10:30:00,60.4,54.9,29.91,SW,214,7.0,11.0,82,0.00,,,0.00,WeatherCatV1.21B27,2013-08-24 09:30:00,
2013-08-24 10:35:00,60.6,55.4,29.91,SSW,204,5.0,7.0,83,0.00,,,0.00,WeatherCatV1.21B27,2013-08-24 09:35:00,
2013-08-24 10:40:00,60.6,55.4,29.91,SSW,194,5.0,8.0,83,0.00,,,0.00,WeatherCatV1.21B27,2013-08-24 09:40:00,
2013-08-24 10:45:00,60.5,55.6,29.91,SW,222,5.0,8.0,84,0.00,,,0.00,WeatherCatV1.21B27,2013-08-24 09:45:00,
2013-08-24 10:50:00,60.4,55.9,29.91,SW,219,9.0,11.0,85,0.00,,,0.00,WeatherCatV1.21B27,2013-08-24 09:50:00,
2013-08-24 10:55:00,60.2,55.7,29.91,South,190,6.0,9.0,85,0.00,,,0.00,WeatherCatV1.21B27,2013-08-24 09:55:00,
2013-08-24 11:00:00,60.1,56.2,29.91,SSW,196,7.0,9.0,87,0.00,,,0.00,WeatherCatV1.21B27,2013-08-24 10:00:00,
2013-08-24 11:05:00,60.1,56.2,29.91,South,173,5.0,8.0,87,0.00,,,0.00,WeatherCatV1.21B27,2013-08-24 10:05:00,
2013-08-24 11:10:00,60.1,56.2,29.91,South,179,8.0,8.0,87,0.00,,,0.00,WeatherCatV1.21B27,2013-08-24 10:10:00,
2013-08-24 11:15:00,60.1,56.2,29.91,SSE,163,6.0,8.0,87,0.00,,,0.00,WeatherCatV1.21B27,2013-08-24 10:15:00,
2013-08-24 11:20:00,60.0,56.4,29.91,SSW,195,11.0,11.0,88,0.00,,,0.00,WeatherCatV1.21B27,2013-08-24 10:20:00,
2013-08-24 11:25:00,60.1,56.5,29.90,SSE,152,4.0,8.0,88,0.00,,,0.00,WeatherCatV1.21B27,2013-08-24 10:25:00,
2013-08-24 11:30:00,60.2,56.3,29.90,SW,215,9.0,15.0,87,0.00,,,0.00,WeatherCatV1.21B27,2013-08-24 10:30:00,
2013-08-24 11:35:00,60.5,56.3,29.90,South,186,16.0,16.0,86,0.00,,,0.00,WeatherCatV1.21B27,2013-08-24 10:35:00,
2013-08-24 11:40:00,60.6,56.1,29.90,SSW,205,9.0,12.0,85,0.00,,,0.00,WeatherCatV1.21B27,2013-08-24 10:40:00,
2013-08-24 11:45:00,60.6,56.1,29.90,SSW,205,12.0,15.0,85,0.00,,,0.00,WeatherCatV1.21B27,2013-08-24 10:45:00,
2013-08-24 11:50:00,60.7,56.2,29.90,SSW,193,5.0,13.0,85,0.00,,,0.00,WeatherCatV1.21B27,2013-08-24 10:50:00,
2013-08-24 11:55:00,60.6,56.1,29.90,SW,222,6.0,11.0,85,0.00,,,0.00,WeatherCatV1.21B27,2013-08-24 10:55:00,
2013-08-24 12:00:00,60.7,56.2,29.90,SW,228,11.0,13.0,85,0.00,,,0.00,WeatherCatV1.21B27,2013-08-24 11:00:00,
2013-08-24 12:05:00,60.6,56.4,29.89,SSW,208,10.0,12.0,86,0.00,,,0.00,WeatherCatV1.21B27,2013-08-24 11:05:00,
2013-08-24 12:10:00,60.6,56.4,29.89,WSW,240,9.0,10.0,86,0.00,,,0.00,WeatherCatV1.21B27,2013-08-24 11:10:00,
2013-08-24 12:15:00,60.7,56.8,29.89,SSE,166,5.0,10.0,87,0.00,,,0.00,WeatherCatV1.21B27,2013-08-24 11:15:00,
2013-08-24 12:20:00,60.4,56.8,29.88,SW,225,9.0,10.0,88,0.00,,,0.00,WeatherCatV1.21B27,2013-08-24 11:20:00,
2013-08-24 12:25:00,60.3,56.7,29.88,South,191,5.0,11.0,88,0.00,,,0.01,WeatherCatV1.21B27,2013-08-24 11:25:00,
2013-08-24 12:30:00,60.2,56.9,29.88,SSE,160,5.0,7.0,89,0.00,,,0.01,WeatherCatV1.21B27,2013-08-24 11:30:00,
2013-08-24 12:35:00,60.1,56.8,29.88,SW,226,6.0,11.0,89,0.00,,,0.01,WeatherCatV1.21B27,2013-08-24 11:35:00,
2013-08-24 12:40:00,60.0,56.4,29.88,SSW,205,7.0,8.0,88,0.00,,,0.01,WeatherCatV1.21B27,2013-08-24 11:40:00,
2013-08-24 12:45:00,60.0,56.7,29.89,SSE,163,8.0,11.0,89,0.00,,,0.01,WeatherCatV1.21B27,2013-08-24 11:45:00,
2013-08-24 12:50:00,59.8,56.2,29.89,SSW,203,5.0,10.0,88,0.00,,,0.01,WeatherCatV1.21B27,2013-08-24 11:50:00,
2013-08-24 12:55:00,59.7,56.1,29.89,South,169,3.0,5.0,88,0.00,,,0.01,WeatherCatV1.21B27,2013-08-24 11:55:00,
2013-08-24 13:00:00,59.6,56.3,29.89,South,177,6.0,8.0,89,0.00,,,0.01,WeatherCatV1.21B27,2013-08-24 12:00:00,
2013-08-24 13:06:00,59.5,56.2,29.89,South,186,5.0,6.0,89,0.00,,,0.01,WeatherCatV1.21B27,2013-08-24 12:06:00,
2013-08-24 13:11:00,59.4,56.2,29.89,SSE,150,3.0,5.0,89,0.00,,,0.01,WeatherCatV1.21B27,2013-08-24 12:11:00,
2013-08-24 13:16:00,59.5,56.2,29.89,SSW,194,5.0,6.0,89,0.00,,,0.01,WeatherCatV1.21B27,2013-08-24 12:16:00,
2013-08-24 13:21:00,59.6,56.3,29.89,SSE,154,2.0,4.0,89,0.00,,,0.01,WeatherCatV1.21B27,2013-08-24 12:21:00,
2013-08-24 13:26:00,59.7,56.5,29.89,SSE,155,4.0,8.0,89,0.00,,,0.01,WeatherCatV1.21B27,2013-08-24 12:26:00,
2013-08-24 13:31:00,59.7,56.5,29.88,SSE,155,6.0,6.0,89,0.00,,,0.01,WeatherCatV1.21B27,2013-08-24 12:31:00,
2013-08-24 13:36:00,59.6,56.0,29.88,SE,139,5.0,6.0,88,0.00,,,0.02,WeatherCatV1.21B27,2013-08-24 12:36:00,
2013-08-24 13:41:00,59.6,56.0,29.88,SSE,160,6.0,8.0,88,0.00,,,0.02,WeatherCatV1.21B27,2013-08-24 12:41:00,
2013-08-24 13:46:00,59.6,56.3,29.88,SW,219,8.0,8.0,89,0.05,,,0.02,WeatherCatV1.21B27,2013-08-24 12:46:00,
2013-08-24 13:51:00,59.3,56.0,29.88,SSE,160,4.0,8.0,89,0.05,,,0.02,WeatherCatV1.21B27,2013-08-24 12:51:00,
2013-08-24 13:56:00,58.7,55.5,29.89,South,190,6.0,9.0,89,0.20,,,0.04,WeatherCatV1.21B27,2013-08-24 12:56:00,
2013-08-24 14:01:00,58.4,55.8,29.89,SSE,148,5.0,7.0,91,0.20,,,0.06,WeatherCatV1.21B27,2013-08-24 13:01:00,
2013-08-24 14:06:00,58.3,56.0,29.89,SSE,155,4.0,5.0,92,0.22,,,0.08,WeatherCatV1.21B27,2013-08-24 13:06:00,
2013-08-24 14:11:00,58.3,56.3,29.88,South,184,3.0,6.0,93,0.17,,,0.09,WeatherCatV1.21B27,2013-08-24 13:11:00,
2013-08-24 14:16:00,58.3,56.3,29.88,SE,134,7.0,10.0,93,0.16,,,0.10,WeatherCatV1.21B27,2013-08-24 13:16:00,
2013-08-24 14:21:00,58.0,56.3,29.88,SE,142,8.0,8.0,94,0.18,,,0.12,WeatherCatV1.21B27,2013-08-24 13:21:00,
2013-08-24 14:26:00,57.9,56.2,29.88,SSE,158,7.0,9.0,94,0.07,,,0.12,WeatherCatV1.21B27,2013-08-24 13:26:00,
2013-08-24 14:31:00,57.7,56.0,29.88,SE,144,7.0,9.0,94,0.04,,,0.13,WeatherCatV1.21B27,2013-08-24 13:31:00,
2013-08-24 14:36:00,57.7,56.0,29.87,South,172,6.0,9.0,94,0.04,,,0.13,WeatherCatV1.21B27,2013-08-24 13:36:00,
2013-08-24 14:41:00,57.8,56.4,29.87,SE,146,7.0,7.0,95,0.04,,,0.13,WeatherCatV1.21B27,2013-08-24 13:41:00,
2013-08-24 14:46:00,57.7,56.3,29.87,SSE,164,3.0,7.0,95,0.03,,,0.13,WeatherCatV1.21B27,2013-08-24 13:46:00,
2013-08-24 14:51:00,57.7,56.0,29.87,South,188,7.0,8.0,94,0.00,,,0.13,WeatherCatV1.21B27,2013-08-24 13:51:00,
2013-08-24 14:56:00,57.9,56.5,29.86,SSW,194,2.0,4.0,95,0.00,,,0.13,WeatherCatV1.21B27,2013-08-24 13:56:00,
2013-08-24 15:01:00,58.2,56.8,29.86,SE,146,4.0,8.0,95,0.00,,,0.13,WeatherCatV1.21B27,2013-08-24 14:01:00,
2013-08-24 15:06:00,58.3,56.6,29.86,South,179,3.0,9.0,94,0.00,,,0.13,WeatherCatV1.21B27,2013-08-24 14:06:00,
2013-08-24 15:11:00,58.6,56.9,29.86,SSE,162,5.0,8.0,94,0.00,,,0.13,WeatherCatV1.21B27,2013-08-24 14:11:00,
2013-08-24 15:16:00,58.7,56.7,29.86,SSE,166,5.0,9.0,93,0.00,,,0.13,WeatherCatV1.21B27,2013-08-24 14:16:00,
2013-08-24 15:21:00,58.8,56.8,29.86,SSE,148,5.0,7.0,93,0.00,,,0.13,WeatherCatV1.21B27,2013-08-24 14:21:00,
2013-08-24 15:26:00,58.8,56.8,29.86,SSE,166,5.0,7.0,93,0.00,,,0.13,WeatherCatV1.21B27,2013-08-24 14:26:00,
2013-08-24 15:31:00,58.8,56.8,29.85,SSE,166,9.0,12.0,93,0.00,,,0.13,WeatherCatV1.21B27,2013-08-24 14:31:00,
2013-08-24 15:36:00,58.9,57.2,29.85,SE,136,8.0,9.0,94,0.00,,,0.13,WeatherCatV1.21B27,2013-08-24 14:36:00,
2013-08-24 15:41:00,59.2,57.5,29.85,SSE,163,6.0,12.0,94,0.00,,,0.13,WeatherCatV1.21B27,2013-08-24 14:41:00,
2013-08-24 15:46:00,59.3,57.3,29.85,South,181,11.0,15.0,93,0.00,,,0.13,WeatherCatV1.21B27,2013-08-24 14:46:00,
2013-08-24 15:51:00,59.4,57.7,29.85,SSE,152,8.0,11.0,94,0.00,,,0.13,WeatherCatV1.21B27,2013-08-24 14:51:00,
2013-08-24 15:56:00,59.3,57.6,29.84,South,184,12.0,12.0,94,0.00,,,0.13,WeatherCatV1.21B27,2013-08-24 14:56:00,
2013-08-24 16:01:00,59.3,57.6,29.84,SSE,167,5.0,14.0,94,0.00,,,0.13,WeatherCatV1.21B27,2013-08-24 15:01:00,
2013-08-24 16:06:00,59.4,57.7,29.84,SW,214,6.0,13.0,94,0.00,,,0.13,WeatherCatV1.21B27,2013-08-24 15:06:00,
2013-08-24 16:11:00,59.5,58.1,29.84,South,173,11.0,12.0,95,0.00,,,0.13,WeatherCatV1.21B27,2013-08-24 15:11:00,
2013-08-24 16:16:00,59.5,58.1,29.84,SSW,203,5.0,12.0,95,0.00,,,0.13,WeatherCatV1.21B27,2013-08-24 15:16:00,
2013-08-24 16:21:00,59.5,58.1,29.84,South,186,7.0,12.0,95,0.00,,,0.13,WeatherCatV1.21B27,2013-08-24 15:21:00,
2013-08-24 16:26:00,59.5,58.4,29.84,SW,217,8.0,10.0,96,0.00,,,0.13,WeatherCatV1.21B27,2013-08-24 15:26:00,
2013-08-24 16:31:00,59.7,58.8,29.83,SSW,210,8.0,11.0,97,0.00,,,0.13,WeatherCatV1.21B27,2013-08-24 15:31:00,
2013-08-24 16:36:00,60.2,59.3,29.83,WSW,248,6.0,12.0,97,0.00,,,0.13,WeatherCatV1.21B27,2013-08-24 15:36:00,
2013-08-24 16:41:00,60.5,59.6,29.83,WSW,250,6.0,11.0,97,0.00,,,0.13,WeatherCatV1.21B27,2013-08-24 15:41:00,
2013-08-24 16:47:00,60.6,59.5,29.83,SW,219,10.0,15.0,96,0.00,,,0.13,WeatherCatV1.21B27,2013-08-24 15:47:00,
2013-08-24 16:52:00,60.8,59.7,29.83,WSW,249,5.0,9.0,96,0.00,,,0.13,WeatherCatV1.21B27,2013-08-24 15:52:00,
2013-08-24 16:57:00,61.1,60.2,29.83,WSW,246,6.0,9.0,97,0.00,,,0.13,WeatherCatV1.21B27,2013-08-24 15:57:00,
2013-08-24 17:02:00,61.0,59.8,29.83,WSW,243,8.0,9.0,96,0.00,,,0.13,WeatherCatV1.21B27,2013-08-24 16:02:00,
2013-08-24 17:07:00,61.0,60.1,29.83,WSW,246,9.0,10.0,97,0.00,,,0.13,WeatherCatV1.21B27,2013-08-24 16:07:00,
2013-08-24 17:12:00,61.2,60.3,29.82,WSW,245,11.0,12.0,97,0.00,,,0.13,WeatherCatV1.21B27,2013-08-24 16:12:00,
2013-08-24 17:17:00,61.3,60.2,29.82,SW,229,5.0,12.0,96,0.00,,,0.13,WeatherCatV1.21B27,2013-08-24 16:17:00,
2013-08-24 17:22:00,61.3,60.2,29.82,WSW,256,8.0,10.0,96,0.00,,,0.13,WeatherCatV1.21B27,2013-08-24 16:22:00,
2013-08-24 17:27:00,61.3,60.2,29.82,SW,224,11.0,13.0,96,0.00,,,0.13,WeatherCatV1.21B27,2013-08-24 16:27:00,
2013-08-24 17:32:00,61.4,60.2,29.82,West,260,7.0,10.0,96,0.00,,,0.13,WeatherCatV1.21B27,2013-08-24 16:32:00,
2013-08-24 17:37:00,61.6,60.5,29.82,SW,218,8.0,10.0,96,0.00,,,0.13,WeatherCatV1.21B27,2013-08-24 16:37:00,
2013-08-24 17:42:00,61.9,60.7,29.81,WSW,247,5.0,8.0,96,0.00,,,0.13,WeatherCatV1.21B27,2013-08-24 16:42:00,
2013-08-24 17:47:00,62.0,60.5,29.81,WSW,243,10.0,11.0,95,0.00,,,0.13,WeatherCatV1.21B27,2013-08-24 16:47:00,
2013-08-24 17:52:00,62.0,60.5,29.81,SW,232,9.0,9.0,95,0.00,,,0.13,WeatherCatV1.21B27,2013-08-24 16:52:00,
2013-08-24 17:57:00,61.9,60.5,29.81,SW,219,6.0,9.0,95,0.00,,,0.13,WeatherCatV1.21B27,2013-08-24 16:57:00,
2013-08-24 18:02:00,61.9,60.5,29.81,WSW,250,3.0,7.0,95,0.00,,,0.13,WeatherCatV1.21B27,2013-08-24 17:02:00,
2013-08-24 18:07:00,61.9,60.5,29.81,WSW,242,4.0,5.0,95,0.00,,,0.13,WeatherCatV1.21B27,2013-08-24 17:07:00,
2013-08-24 18:12:00,62.5,61.3,29.81,West,267,4.0,6.0,96,0.00,,,0.13,WeatherCatV1.21B27,2013-08-24 17:12:00,
2013-08-24 18:17:00,62.4,60.3,29.81,WNW,289,12.0,12.0,93,0.00,,,0.13,WeatherCatV1.21B27,2013-08-24 17:17:00,
2013-08-24 18:22:00,61.9,59.8,29.82,WNW,299,7.0,10.0,93,0.00,,,0.13,WeatherCatV1.21B27,2013-08-24 17:22:00,
2013-08-24 18:27:00,61.6,59.5,29.82,WSW,245,10.0,10.0,93,0.00,,,0.13,WeatherCatV1.21B27,2013-08-24 17:27:00,
2013-08-24 18:32:00,61.2,59.2,29.82,West,266,3.0,7.0,93,0.00,,,0.13,WeatherCatV1.21B27,2013-08-24 17:32:00,
2013-08-24 18:37:00,61.1,59.1,29.81,West,262,8.0,8.0,93,0.00,,,0.13,WeatherCatV1.21B27,2013-08-24 17:37:00,
2013-08-24 18:42:00,61.0,59.0,29.81,WSW,250,10.0,13.0,93,0.00,,,0.13,WeatherCatV1.21B27,2013-08-24 17:42:00,
2013-08-24 18:47:00,61.0,59.0,29.81,West,274,8.0,15.0,93,0.00,,,0.13,WeatherCatV1.21B27,2013-08-24 17:47:00,
2013-08-24 18:52:00,61.1,59.1,29.81,West,279,6.0,10.0,93,0.00,,,0.13,WeatherCatV1.21B27,2013-08-24 17:52:00,
2013-08-24 18:57:00,61.3,59.3,29.81,WNW,283,6.0,10.0,93,0.00,,,0.13,WeatherCatV1.21B27,2013-08-24 17:57:00,
2013-08-24 19:02:00,61.3,59.0,29.82,West,277,8.0,14.0,92,0.00,,,0.13,WeatherCatV1.21B27,2013-08-24 18:02:00,
2013-08-24 19:07:00,61.3,59.0,29.82,WNW,290,6.0,7.0,92,0.00,,,0.13,WeatherCatV1.21B27,2013-08-24 18:07:00,
2013-08-24 19:12:00,61.1,58.5,29.82,West,264,10.0,13.0,91,0.00,,,0.13,WeatherCatV1.21B27,2013-08-24 18:12:00,
2013-08-24 19:17:00,60.8,58.2,29.82,West,263,12.0,12.0,91,0.00,,,0.13,WeatherCatV1.21B27,2013-08-24 18:17:00,
2013-08-24 19:22:00,60.6,58.0,29.82,WSW,249,6.0,11.0,91,0.00,,,0.13,WeatherCatV1.21B27,2013-08-24 18:22:00,
2013-08-24 19:27:00,60.7,58.0,29.82,WNW,294,5.0,13.0,91,0.00,,,0.13,WeatherCatV1.21B27,2013-08-24 18:27:00,
2013-08-24 19:32:00,60.9,58.2,29.82,WNW,282,5.0,8.0,91,0.00,,,0.13,WeatherCatV1.21B27,2013-08-24 18:32:00,
2013-08-24 19:37:00,60.8,58.5,29.83,West,281,5.0,7.0,92,0.00,,,0.13,WeatherCatV1.21B27,2013-08-24 18:37:00,
2013-08-24 19:42:00,60.5,58.2,29.83,West,278,4.0,12.0,92,0.00,,,0.13,WeatherCatV1.21B27,2013-08-24 18:42:00,
2013-08-24 19:47:00,60.1,58.1,29.83,WNW,285,4.0,9.0,93,0.00,,,0.13,WeatherCatV1.21B27,2013-08-24 18:47:00,
2013-08-24 19:52:00,59.8,57.8,29.83,WNW,300,6.0,6.0,93,0.00,,,0.13,WeatherCatV1.21B27,2013-08-24 18:52:00,
2013-08-24 19:57:00,59.5,57.5,29.83,West,281,4.0,8.0,93,0.00,,,0.13,WeatherCatV1.21B27,2013-08-24 18:57:00,
2013-08-24 20:02:00,59.4,57.4,29.84,NW,312,4.0,7.0,93,0.00,,,0.13,WeatherCatV1.21B27,2013-08-24 19:02:00,
2013-08-24 20:07:00,59.2,57.2,29.84,WNW,290,4.0,8.0,93,0.00,,,0.13,WeatherCatV1.21B27,2013-08-24 19:07:00,
2013-08-24 20:12:00,59.1,57.1,29.84,WNW,282,4.0,5.0,93,0.00,,,0.13,WeatherCatV1.21B27,2013-08-24 19:12:00,
2013-08-24 20:17:00,59.0,57.0,29.84,WNW,293,4.0,5.0,93,0.00,,,0.13,WeatherCatV1.21B27,2013-08-24 19:17:00,
2013-08-24 20:22:00,59.0,57.3,29.84,WNW,288,4.0,7.0,94,0.00,,,0.13,WeatherCatV1.21B27,2013-08-24 19:22:00,
2013-08-24 20:27:00,58.9,57.2,29.84,WNW,287,4.0,5.0,94,0.00,,,0.13,WeatherCatV1.21B27,2013-08-24 19:27:00,
2013-08-24 20:32:00,58.8,56.8,29.84,West,278,2.0,4.0,93,0.00,,,0.13,WeatherCatV1.21B27,2013-08-24 19:32:00,
2013-08-24 20:38:00,58.8,56.8,29.85,West,281,1.0,3.0,93,0.00,,,0.13,WeatherCatV1.21B27,2013-08-24 19:38:00,
2013-08-24 20:42:00,58.7,56.7,29.84,NW,304,2.0,6.0,93,0.00,,,0.13,WeatherCatV1.21B27,2013-08-24 19:42:00,
2013-08-24 20:48:00,58.6,56.6,29.85,WNW,290,4.0,6.0,93,0.00,,,0.13,WeatherCatV1.21B27,2013-08-24 19:48:00,
2013-08-24 20:53:00,58.6,56.6,29.85,NW,307,1.0,4.0,93,0.00,,,0.13,WeatherCatV1.21B27,2013-08-24 19:53:00,
2013-08-24 20:58:00,58.5,56.5,29.85,WNW,283,4.0,6.0,93,0.00,,,0.13,WeatherCatV1.21B27,2013-08-24 19:58:00,
2013-08-24 21:03:00,58.5,56.5,29.85,NW,304,2.0,5.0,93,0.00,,,0.13,WeatherCatV1.21B27,2013-08-24 20:03:00,
2013-08-24 21:08:00,58.5,56.2,29.86,West,266,4.0,6.0,92,0.00,,,0.13,WeatherCatV1.21B27,2013-08-24 20:08:00,
2013-08-24 21:13:00,58.5,56.2,29.86,WNW,293,2.0,4.0,92,0.00,,,0.13,WeatherCatV1.21B27,2013-08-24 20:13:00,
2013-08-24 21:18:00,58.4,56.1,29.86,WNW,282,1.0,4.0,92,0.00,,,0.13,WeatherCatV1.21B27,2013-08-24 20:18:00,
2013-08-24 21:23:00,58.2,55.9,29.86,WNW,298,3.0,5.0,92,0.00,,,0.13,WeatherCatV1.21B27,2013-08-24 20:23:00,
2013-08-24 21:28:00,58.1,56.1,29.86,WNW,298,4.0,4.0,93,0.00,,,0.13,WeatherCatV1.21B27,2013-08-24 20:28:00,
2013-08-24 21:33:00,58.0,56.0,29.86,West,280,5.0,6.0,93,0.00,,,0.13,WeatherCatV1.21B27,2013-08-24 20:33:00,
2013-08-24 21:38:00,57.9,55.9,29.86,WNW,295,3.0,5.0,93,0.00,,,0.13,WeatherCatV1.21B27,2013-08-24 20:38:00,
2013-08-24 21:43:00,57.8,55.8,29.86,WNW,301,2.0,5.0,93,0.00,,,0.13,WeatherCatV1.21B27,2013-08-24 20:43:00,
2013-08-24 21:48:00,57.7,55.7,29.87,WNW,288,2.0,5.0,93,0.00,,,0.13,WeatherCatV1.21B27,2013-08-24 20:48:00,
2013-08-24 21:53:00,57.6,55.6,29.87,NW,311,4.0,6.0,93,0.00,,,0.13,WeatherCatV1.21B27,2013-08-24 20:53:00,
2013-08-24 21:58:00,57.5,55.5,29.87,North,6,0.0,4.0,93,0.00,,,0.13,WeatherCatV1.21B27,2013-08-24 20:58:00,
2013-08-24 22:03:00,57.4,55.4,29.87,WNW,290,3.0,7.0,93,0.00,,,0.13,WeatherCatV1.21B27,2013-08-24 21:03:00,
2013-08-24 22:08:00,57.4,55.4,29.87,West,262,2.0,5.0,93,0.00,,,0.13,WeatherCatV1.21B27,2013-08-24 21:08:00,
2013-08-24 22:13:00,57.4,55.4,29.87,WNW,288,3.0,6.0,93,0.00,,,0.13,WeatherCatV1.21B27,2013-08-24 21:13:00,
2013-08-24 22:18:00,57.4,55.1,29.88,West,267,4.0,5.0,92,0.00,,,0.13,WeatherCatV1.21B27,2013-08-24 21:18:00,
2013-08-24 22:23:00,57.4,55.1,29.88,West,278,3.0,3.0,92,0.00,,,0.13,WeatherCatV1.21B27,2013-08-24 21:23:00,
2013-08-24 22:28:00,57.2,54.9,29.88,West,276,3.0,3.0,92,0.00,,,0.13,WeatherCatV1.21B27,2013-08-24 21:28:00,
2013-08-24 22:33:00,57.1,54.8,29.88,WNW,287,3.0,6.0,92,0.00,,,0.13,WeatherCatV1.21B27,2013-08-24 21:33:00,
2013-08-24 22:38:00,57.0,54.7,29.88,West,276,1.0,5.0,92,0.00,,,0.13,WeatherCatV1.21B27,2013-08-24 21:38:00,
2013-08-24 22:43:00,56.9,54.6,29.89,WNW,287,2.0,4.0,92,0.00,,,0.13,WeatherCatV1.21B27,2013-08-24 21:43:00,
2013-08-24 22:48:00,56.8,54.5,29.89,West,271,4.0,5.0,92,0.00,,,0.13,WeatherCatV1.21B27,2013-08-24 21:48:00,
2013-08-24 22:53:00,56.8,54.8,29.89,West,281,3.0,5.0,93,0.00,,,0.13,WeatherCatV1.21B27,2013-08-24 21:53:00,
2013-08-24 22:58:00,56.8,54.8,29.89,NW,314,3.0,4.0,93,0.00,,,0.13,WeatherCatV1.21B27,2013-08-24 21:58:00,
2013-08-24 23:03:00,56.7,54.7,29.89,WNW,293,2.0,2.0,93,0.00,,,0.13,WeatherCatV1.21B27,2013-08-24 22:03:00,
2013-08-24 23:08:00,56.6,54.6,29.90,West,278,1.0,4.0,93,0.00,,,0.13,WeatherCatV1.21B27,2013-08-24 22:08:00,
2013-08-24 23:13:00,56.6,54.6,29.90,WNW,283,2.0,3.0,93,0.00,,,0.13,WeatherCatV1.21B27,2013-08-24 22:13:00,
2013-08-24 23:18:00,56.5,54.8,29.90,WNW,283,2.0,4.0,94,0.00,,,0.13,WeatherCatV1.21B27,2013-08-24 22:18:00,
2013-08-24 23:23:00,56.4,54.7,29.90,NW,318,0.0,3.0,94,0.00,,,0.13,WeatherCatV1.21B27,2013-08-24 22:23:00,
2013-08-24 23:28:00,56.3,54.6,29.90,West,277,1.0,2.0,94,0.00,,,0.13,WeatherCatV1.21B27,2013-08-24 22:28:00,
2013-08-24 23:33:00,56.2,54.5,29.90,NNW,335,1.0,2.0,94,0.00,,,0.13,WeatherCatV1.21B27,2013-08-24 22:33:00,
2013-08-24 23:38:00,55.9,54.2,29.90,NNW,328,1.0,3.0,94,0.00,,,0.13,WeatherCatV1.21B27,2013-08-24 22:38:00,
2013-08-24 23:43:00,55.8,54.1,29.90,NW,326,0.0,2.0,94,0.00,,,0.13,WeatherCatV1.21B27,2013-08-24 22:43:00,
2013-08-24 23:48:00,55.7,54.3,29.91,NW,324,0.0,1.0,95,0.00,,,0.13,WeatherCatV1.21B27,2013-08-24 22:48:00,
2013-08-24 23:53:00,55.8,54.4,29.91,NNW,339,2.0,3.0,95,0.00,,,0.13,WeatherCatV1.21B27,2013-08-24 22:53:00,
2013-08-24 23:58:00,56.0,54.6,29.91,NW,320,1.0,3.0,95,0.00,,,0.13,WeatherCatV1.21B27,2013-08-24 22:58:00,